| time (UTC) | temp F | wind direction | speed knots | gust knots | rain 1hr in | rain 24hr in | rain mn in | humidity % | barometer mb |
| 20260504015214 | 61 | 272 | 1.7 | 2.6 | 0.00 | 0.00 | 0.00 | 50 | 1017.9 |
| 20260504015008 | 61 | 275 | 1.7 | 2.6 | 0.00 | 0.00 | 0.00 | 50 | 1017.9 |
| 20260504014508 | 61 | 281 | 0.9 | 2.6 | 0.00 | 0.00 | 0.00 | 50 | 1017.9 |
| 20260504014214 | 61 | 278 | 1.7 | 3.5 | 0.00 | 0.00 | 0.00 | 50 | 1017.7 |
| 20260504014008 | 61 | 280 | 1.7 | 2.6 | 0.00 | 0.00 | 0.00 | 51 | 1017.7 |
| 20260504013507 | 61 | 281 | 1.7 | 2.6 | 0.00 | 0.00 | 0.00 | 51 | 1017.7 |
| 20260504013214 | 61 | 281 | 2.6 | 2.6 | 0.00 | 0.00 | 0.00 | 50 | 1017.7 |
| 20260504013008 | 61 | 256 | 0.9 | 2.6 | 0.00 | 0.00 | 0.00 | 50 | 1017.7 |
| 20260504012508 | 61 | 251 | 0.0 | 2.6 | 0.00 | 0.00 | 0.00 | 51 | 1017.6 |
| 20260504012214 | 61 | 251 | 1.7 | 1.7 | 0.00 | 0.00 | 0.00 | 51 | 1017.6 |
| 20260504012007 | 61 | 264 | 0.9 | 2.6 | 0.00 | 0.00 | 0.00 | 51 | 1017.6 |
| 20260504011508 | 61 | 268 | 0.9 | 1.7 | 0.00 | 0.00 | 0.00 | 51 | 1017.6 |
| 20260504011214 | 61 | 263 | 0.9 | 1.7 | 0.00 | 0.00 | 0.00 | 51 | 1017.8 |
| 20260504011008 | 61 | 251 | 1.7 | 1.7 | 0.00 | 0.00 | 0.00 | 51 | 1017.8 |
| 20260504010508 | 61 | 258 | 0.9 | 0.9 | 0.00 | 0.00 | 0.00 | 51 | 1017.8 |
| 20260504010213 | 61 | 253 | 0.0 | 1.7 | 0.00 | 0.00 | 0.00 | 51 | 1017.8 |
| 20260504010008 | 61 | 257 | 1.7 | 1.7 | 0.00 | 0.00 | 0.00 | 51 | 1017.8 |
| 20260504005508 | 61 | 264 | 1.7 | 1.7 | 0.00 | 0.00 | 0.00 | 51 | 1017.7 |
| 20260504005216 | 62 | 267 | 0.9 | 1.7 | 0.00 | 0.00 | 0.00 | 51 | 1017.7 |
| 20260504005008 | 62 | 267 | 1.7 | 1.7 | 0.00 | 0.00 | 0.00 | 51 | 1017.7 |
| 20260504004509 | 62 | 265 | 0.9 | 1.7 | 0.00 | 0.00 | 0.00 | 50 | 1017.7 |
| 20260504004214 | 62 | 268 | 0.9 | 1.7 | 0.00 | 0.00 | 0.00 | 50 | 1017.5 |
| 20260504004008 | 62 | 289 | 0.9 | 1.7 | 0.00 | 0.00 | 0.00 | 50 | 1017.5 |
| 20260504003508 | 62 | 256 | 0.9 | 1.7 | 0.00 | 0.00 | 0.00 | 50 | 1017.5 |
| 20260504003215 | 62 | 263 | 0.9 | 1.7 | 0.00 | 0.00 | 0.00 | 49 | 1017.5 |
| 20260504003008 | 62 | 278 | 0.9 | 1.7 | 0.00 | 0.00 | 0.00 | 49 | 1017.5 |
| 20260504002509 | 63 | 285 | 0.9 | 1.7 | 0.00 | 0.00 | 0.00 | 49 | 1017.4 |
| 20260504002215 | 63 | 288 | 1.7 | 1.7 | 0.00 | 0.00 | 0.00 | 49 | 1017.4 |
| 20260504002008 | 63 | 294 | 0.0 | 0.9 | 0.00 | 0.00 | 0.00 | 49 | 1017.4 |
| 20260504001507 | 63 | 284 | 0.9 | 1.7 | 0.00 | 0.00 | 0.00 | 49 | 1017.4 |
| 20260504001248 | 64 | 298 | 0.9 | 0.9 | 0.00 | 0.00 | 0.00 | 49 | 1017.6 |
| 20260504001214 | 64 | 298 | 0.9 | 0.9 | 0.00 | 0.00 | 0.00 | 49 | 1017.6 |
| 20260504001008 | 64 | 291 | 0.0 | 1.7 | 0.00 | 0.00 | 0.00 | 48 | 1017.6 |
| 20260504000508 | 64 | 282 | 0.0 | 0.9 | 0.00 | 0.00 | 0.00 | 47 | 1017.6 |
| 20260504000215 | 64 | 265 | 1.7 | 1.7 | 0.00 | 0.00 | 0.00 | 47 | 1017.6 |
| 20260504000008 | 64 | 263 | 1.7 | 1.7 | 0.00 | 0.00 | 0.00 | 48 | 1017.6 |
| 20260503235507 | 65 | 281 | 0.0 | 0.9 | 0.00 | 0.00 | 0.00 | 48 | 1017.6 |
| 20260503235214 | 65 | 288 | 0.0 | 0.9 | 0.00 | 0.00 | 0.00 | 46 | 1017.6 |
| 20260503235008 | 65 | 288 | 1.7 | 1.7 | 0.00 | 0.00 | 0.00 | 47 | 1017.6 |
| 20260503234507 | 65 | 281 | 0.9 | 1.7 | 0.00 | 0.00 | 0.00 | 46 | 1017.6 |
| 20260503234215 | 65 | 289 | 0.9 | 0.9 | 0.00 | 0.00 | 0.00 | 46 | 1017.6 |
| 20260503234009 | 65 | 289 | 0.0 | 0.9 | 0.00 | 0.00 | 0.00 | 46 | 1017.6 |
| 20260503233508 | 66 | 282 | 1.7 | 2.6 | 0.00 | 0.00 | 0.00 | 45 | 1017.6 |
| 20260503233214 | 66 | 295 | 0.0 | 0.9 | 0.00 | 0.00 | 0.00 | 45 | 1017.6 |
| 20260503233008 | 66 | 298 | 0.9 | 4.3 | 0.00 | 0.00 | 0.00 | 45 | 1017.6 |
| 20260503232510 | 66 | 264 | 0.0 | 0.9 | 0.00 | 0.00 | 0.00 | 43 | 1017.6 |
| 20260503232214 | 66 | 311 | 2.6 | 2.6 | 0.00 | 0.00 | 0.00 | 43 | 1017.6 |
| 20260503232008 | 66 | 305 | 1.7 | 4.3 | 0.00 | 0.00 | 0.00 | 44 | 1017.6 |
| 20260503231508 | 66 | 292 | 0.9 | 4.3 | 0.00 | 0.00 | 0.00 | 42 | 1017.6 |
| 20260503231214 | 66 | 302 | 2.6 | 2.6 | 0.00 | 0.00 | 0.00 | 43 | 1017.5 |
| 20260503231007 | 66 | 319 | 0.9 | 2.6 | 0.00 | 0.00 | 0.00 | 43 | 1017.5 |
| 20260503230509 | 66 | 308 | 0.9 | 0.9 | 0.00 | 0.00 | 0.00 | 43 | 1017.5 |
| 20260503230214 | 67 | 309 | 3.5 | 3.5 | 0.00 | 0.00 | 0.00 | 43 | 1017.5 |
| 20260503230009 | 67 | 272 | 0.9 | 2.6 | 0.00 | 0.00 | 0.00 | 43 | 1017.5 |
| 20260503225508 | 67 | 282 | 0.9 | 2.6 | 0.00 | 0.00 | 0.00 | 42 | 1017.6 |
| 20260503225215 | 67 | 294 | 0.0 | 0.9 | 0.00 | 0.00 | 0.00 | 41 | 1017.6 |
| 20260503225007 | 67 | 284 | 2.6 | 3.5 | 0.00 | 0.00 | 0.00 | 42 | 1017.6 |
| 20260503224508 | 67 | 291 | 1.7 | 3.5 | 0.00 | 0.00 | 0.00 | 42 | 1017.6 |
| 20260503224214 | 67 | 229 | 0.9 | 2.6 | 0.00 | 0.00 | 0.00 | 44 | 1017.7 |
| 20260503224007 | 67 | 0 | 1.7 | 1.7 | 0.00 | 0.00 | 0.00 | 42 | 1017.7 |
| 20260503223508 | 67 | 318 | 0.0 | 0.9 | 0.00 | 0.00 | 0.00 | 41 | 1017.7 |
| 20260503223214 | 67 | 280 | 0.0 | 0.0 | 0.00 | 0.00 | 0.00 | 41 | 1017.7 |
| 20260503223008 | 67 | 278 | 0.0 | 1.7 | 0.00 | 0.00 | 0.00 | 41 | 1017.7 |
| 20260503222509 | 67 | 320 | 1.7 | 1.7 | 0.00 | 0.00 | 0.00 | 42 | 1017.9 |
| 20260503222214 | 67 | 335 | 0.9 | 3.5 | 0.00 | 0.00 | 0.00 | 42 | 1017.9 |
| 20260503222009 | 67 | 329 | 0.9 | 2.6 | 0.00 | 0.00 | 0.00 | 41 | 1017.9 |
| 20260503221509 | 67 | 330 | 2.6 | 2.6 | 0.00 | 0.00 | 0.00 | 40 | 1017.9 |
| 20260503221217 | 67 | 20 | 3.5 | 4.3 | 0.00 | 0.00 | 0.00 | 40 | 1017.9 |
| 20260503221008 | 67 | 6 | 3.5 | 3.5 | 0.00 | 0.00 | 0.00 | 42 | 1017.9 |
| 20260503220508 | 67 | 312 | 0.9 | 2.6 | 0.00 | 0.00 | 0.00 | 42 | 1017.9 |
| 20260503220215 | 67 | 313 | 3.5 | 5.2 | 0.00 | 0.00 | 0.00 | 44 | 1017.9 |
| 20260503220009 | 67 | 350 | 2.6 | 6.1 | 0.00 | 0.00 | 0.00 | 43 | 1017.9 |
| 20260503215509 | 67 | 295 | 0.0 | 2.6 | 0.00 | 0.00 | 0.00 | 40 | 1018.1 |
| 20260503215214 | 67 | 27 | 1.7 | 6.1 | 0.00 | 0.00 | 0.00 | 40 | 1018.1 |
| 20260503215008 | 67 | 313 | 0.0 | 2.6 | 0.00 | 0.00 | 0.00 | 41 | 1018.1 |
| 20260503214508 | 67 | 281 | 0.0 | 0.9 | 0.00 | 0.00 | 0.00 | 41 | 1018.1 |
| 20260503214215 | 68 | 0 | 2.6 | 5.2 | 0.00 | 0.00 | 0.00 | 41 | 1018.2 |
| 20260503214009 | 68 | 260 | 5.2 | 6.1 | 0.00 | 0.00 | 0.00 | 41 | 1018.2 |
| 20260503213509 | 68 | 285 | 0.9 | 3.5 | 0.00 | 0.00 | 0.00 | 44 | 1018.2 |
| 20260503213214 | 68 | 0 | 0.9 | 1.7 | 0.00 | 0.00 | 0.00 | 40 | 1018.2 |
| 20260503213008 | 68 | 6 | 3.5 | 5.2 | 0.00 | 0.00 | 0.00 | 41 | 1018.2 |
| 20260503212508 | 68 | 326 | 0.9 | 0.9 | 0.00 | 0.00 | 0.00 | 41 | 1018.3 |
| 20260503212214 | 68 | 342 | 0.9 | 2.6 | 0.00 | 0.00 | 0.00 | 40 | 1018.3 |
| 20260503212009 | 68 | 315 | 4.3 | 4.3 | 0.00 | 0.00 | 0.00 | 40 | 1018.3 |
| 20260503211508 | 68 | 326 | 4.3 | 5.2 | 0.00 | 0.00 | 0.00 | 39 | 1018.3 |
| 20260503211214 | 68 | 287 | 3.5 | 3.5 | 0.00 | 0.00 | 0.00 | 41 | 1018.4 |
| 20260503211007 | 68 | 257 | 5.2 | 6.1 | 0.00 | 0.00 | 0.00 | 41 | 1018.4 |
| 20260503210508 | 68 | 241 | 4.3 | 7.8 | 0.00 | 0.00 | 0.00 | 40 | 1018.4 |
| 20260503210215 | 68 | 11 | 0.0 | 1.7 | 0.00 | 0.00 | 0.00 | 43 | 1018.4 |
| 20260503210009 | 68 | 4 | 0.9 | 0.9 | 0.00 | 0.00 | 0.00 | 41 | 1018.4 |
| 20260503205507 | 68 | 291 | 1.7 | 5.2 | 0.00 | 0.00 | 0.00 | 41 | 1018.7 |
| 20260503205214 | 69 | 299 | 1.7 | 8.7 | 0.00 | 0.00 | 0.00 | 39 | 1018.7 |
| 20260503205010 | 69 | 298 | 0.9 | 4.3 | 0.00 | 0.00 | 0.00 | 39 | 1018.7 |
| 20260503204509 | 69 | 315 | 0.0 | 1.7 | 0.00 | 0.00 | 0.00 | 39 | 1018.7 |
| 20260503204214 | 69 | 263 | 1.7 | 3.5 | 0.00 | 0.00 | 0.00 | 40 | 1019.0 |
| 20260503204007 | 69 | 335 | 0.9 | 5.2 | 0.00 | 0.00 | 0.00 | 39 | 1019.0 |
| 20260503203508 | 69 | 275 | 1.7 | 4.3 | 0.00 | 0.00 | 0.00 | 42 | 1019.0 |
| 20260503203215 | 69 | 265 | 3.5 | 7.8 | 0.00 | 0.00 | 0.00 | 39 | 1019.0 |
| 20260503203008 | 69 | 350 | 2.6 | 6.1 | 0.00 | 0.00 | 0.00 | 39 | 1019.0 |
| 20260503202508 | 69 | 275 | 2.6 | 5.2 | 0.00 | 0.00 | 0.00 | 39 | 1019.1 |
| 20260503202214 | 69 | 311 | 2.6 | 3.5 | 0.00 | 0.00 | 0.00 | 38 | 1019.1 |
| 20260503202007 | 69 | 256 | 1.7 | 4.3 | 0.00 | 0.00 | 0.00 | 41 | 1019.1 |
| 20260503201508 | 69 | 323 | 1.7 | 2.6 | 0.00 | 0.00 | 0.00 | 41 | 1019.1 |
| 20260503201215 | 69 | 246 | 1.7 | 5.2 | 0.00 | 0.00 | 0.00 | 40 | 1019.5 |
| 20260503201009 | 69 | 304 | 3.5 | 3.5 | 0.00 | 0.00 | 0.00 | 40 | 1019.5 |
| 20260503200508 | 68 | 333 | 0.9 | 2.6 | 0.00 | 0.00 | 0.00 | 38 | 1019.5 |
| 20260503200213 | 68 | 319 | 0.0 | 2.6 | 0.00 | 0.00 | 0.00 | 38 | 1019.5 |
| 20260503200007 | 68 | 339 | 2.6 | 6.1 | 0.00 | 0.00 | 0.00 | 39 | 1019.5 |
| 20260503195511 | 68 | 302 | 7.8 | 7.8 | 0.00 | 0.00 | 0.00 | 38 | 1019.9 |
| 20260503195215 | 68 | 318 | 7.8 | 8.7 | 0.00 | 0.00 | 0.00 | 38 | 1019.9 |
| 20260503195008 | 68 | 267 | 3.5 | 4.3 | 0.00 | 0.00 | 0.00 | 37 | 1019.9 |
| 20260503194507 | 68 | 275 | 2.6 | 4.3 | 0.00 | 0.00 | 0.00 | 39 | 1019.9 |
| 20260503194214 | 68 | 306 | 5.2 | 8.7 | 0.00 | 0.00 | 0.00 | 40 | 1020.1 |
| 20260503194008 | 68 | 294 | 4.3 | 12.2 | 0.00 | 0.00 | 0.00 | 38 | 1020.1 |
| 20260503193509 | 68 | 313 | 6.1 | 6.1 | 0.00 | 0.00 | 0.00 | 38 | 1020.1 |
| 20260503193213 | 68 | 0 | 5.2 | 7.8 | 0.00 | 0.00 | 0.00 | 38 | 1020.1 |
| 20260503193009 | 68 | 332 | 6.1 | 6.1 | 0.00 | 0.00 | 0.00 | 41 | 1020.1 |
| 20260503192508 | 68 | 357 | 9.6 | 12.2 | 0.00 | 0.00 | 0.00 | 39 | 1020.3 |
| 20260503192214 | 68 | 0 | 1.7 | 2.6 | 0.00 | 0.00 | 0.00 | 44 | 1020.3 |
| 20260503192008 | 67 | 359 | 0.9 | 5.2 | 0.00 | 0.00 | 0.00 | 44 | 1020.3 |
| 20260503191509 | 67 | 289 | 1.7 | 2.6 | 0.00 | 0.00 | 0.00 | 42 | 1020.3 |
| 20260503191214 | 67 | 285 | 4.3 | 5.2 | 0.00 | 0.00 | 0.00 | 42 | 1020.5 |
| 20260503191008 | 67 | 222 | 0.9 | 0.9 | 0.00 | 0.00 | 0.00 | 45 | 1020.5 |
| 20260503190507 | 67 | 160 | 0.9 | 0.9 | 0.00 | 0.00 | 0.00 | 41 | 1020.5 |
| 20260503190215 | 67 | 291 | 6.1 | 8.7 | 0.00 | 0.00 | 0.00 | 42 | 1020.5 |
| 20260503190008 | 67 | 311 | 1.7 | 8.7 | 0.00 | 0.00 | 0.00 | 43 | 1020.5 |
| 20260503185508 | 67 | 275 | 2.6 | 4.3 | 0.00 | 0.00 | 0.00 | 40 | 1020.8 |
| 20260503185213 | 67 | 289 | 0.9 | 2.6 | 0.00 | 0.00 | 0.00 | 41 | 1020.8 |
| 20260503185007 | 67 | 322 | 0.0 | 1.7 | 0.00 | 0.00 | 0.00 | 42 | 1020.8 |
| 20260503184507 | 67 | 38 | 0.9 | 1.7 | 0.00 | 0.00 | 0.00 | 44 | 1020.8 |
| 20260503184214 | 67 | 326 | 0.0 | 3.5 | 0.00 | 0.00 | 0.00 | 42 | 1021.0 |
| 20260503184009 | 67 | 0 | 4.3 | 8.7 | 0.00 | 0.00 | 0.00 | 43 | 1021.0 |
| 20260503183509 | 67 | 305 | 0.9 | 2.6 | 0.00 | 0.00 | 0.00 | 41 | 1021.0 |
| 20260503183214 | 67 | 11 | 9.6 | 10.4 | 0.00 | 0.00 | 0.00 | 45 | 1021.0 |
| 20260503183007 | 67 | 241 | 3.5 | 4.3 | 0.00 | 0.00 | 0.00 | 42 | 1021.0 |
| 20260503182507 | 67 | 328 | 1.7 | 5.2 | 0.00 | 0.00 | 0.00 | 43 | 1021.2 |
| 20260503182214 | 67 | 298 | 1.7 | 6.1 | 0.00 | 0.00 | 0.00 | 43 | 1021.2 |
| 20260503182009 | 66 | 304 | 2.6 | 6.1 | 0.00 | 0.00 | 0.00 | 43 | 1021.2 |
| 20260503181509 | 66 | 315 | 3.5 | 7.8 | 0.00 | 0.00 | 0.00 | 42 | 1021.2 |
| 20260503181214 | 66 | 25 | 0.9 | 4.3 | 0.00 | 0.00 | 0.00 | 41 | 1021.3 |
| 20260503181008 | 66 | 251 | 0.0 | 2.6 | 0.00 | 0.00 | 0.00 | 44 | 1021.3 |
| 20260503180508 | 66 | 304 | 0.9 | 2.6 | 0.00 | 0.00 | 0.00 | 43 | 1021.3 |
| 20260503180214 | 66 | 17 | 4.3 | 4.3 | 0.00 | 0.00 | 0.00 | 45 | 1021.3 |
| 20260503180008 | 66 | 332 | 2.6 | 4.3 | 0.00 | 0.00 | 0.00 | 47 | 1021.3 |
| 20260503175509 | 65 | 325 | 0.9 | 3.5 | 0.00 | 0.00 | 0.00 | 48 | 1021.3 |
| 20260503175213 | 65 | 3 | 4.3 | 4.3 | 0.00 | 0.00 | 0.00 | 47 | 1021.3 |
| 20260503175007 | 65 | 296 | 0.0 | 4.3 | 0.00 | 0.00 | 0.00 | 48 | 1021.3 |
| 20260503174509 | 65 | 320 | 3.5 | 3.5 | 0.00 | 0.00 | 0.00 | 47 | 1021.3 |
| 20260503174214 | 64 | 54 | 0.9 | 0.9 | 0.00 | 0.00 | 0.00 | 47 | 1021.6 |
| 20260503174008 | 64 | 1 | 2.6 | 2.6 | 0.00 | 0.00 | 0.00 | 48 | 1021.6 |
| 20260503173508 | 64 | 272 | 0.0 | 1.7 | 0.00 | 0.00 | 0.00 | 50 | 1021.6 |
| 20260503173214 | 64 | 357 | 4.3 | 4.3 | 0.00 | 0.00 | 0.00 | 52 | 1021.6 |
| 20260503173007 | 64 | 282 | 2.6 | 6.1 | 0.00 | 0.00 | 0.00 | 48 | 1021.6 |
| 20260503172508 | 64 | 0 | 3.5 | 5.2 | 0.00 | 0.00 | 0.00 | 50 | 1021.8 |
| 20260503172213 | 64 | 340 | 2.6 | 2.6 | 0.00 | 0.00 | 0.00 | 49 | 1021.8 |
| 20260503172009 | 64 | 304 | 0.9 | 4.3 | 0.00 | 0.00 | 0.00 | 48 | 1021.8 |
| 20260503171507 | 64 | 287 | 2.6 | 5.2 | 0.00 | 0.00 | 0.00 | 47 | 1021.8 |
| 20260503171215 | 64 | 309 | 1.7 | 8.7 | 0.00 | 0.00 | 0.00 | 47 | 1022.1 |
| 20260503171008 | 64 | 288 | 2.6 | 2.6 | 0.00 | 0.00 | 0.00 | 52 | 1022.1 |
| 20260503170509 | 63 | 193 | 0.0 | 0.0 | 0.00 | 0.00 | 0.00 | 52 | 1022.1 |
| 20260503170215 | 63 | 213 | 0.0 | 2.6 | 0.00 | 0.00 | 0.00 | 48 | 1022.1 |
| 20260503160213 | 61 | 10 | 4.3 | 4.3 | 0.00 | 0.00 | 0.00 | 52 | 1022.4 |
| 20260503151007 | 60 | 30 | 1.7 | 3.5 | 0.00 | 0.00 | 0.00 | 55 | 1022.4 |
| 20260503150507 | 60 | 337 | 3.5 | 3.5 | 0.00 | 0.00 | 0.00 | 57 | 1022.4 |
| 20260503150214 | 60 | 103 | 0.9 | 1.7 | 0.00 | 0.00 | 0.00 | 58 | 1022.4 |
| 20260503140214 | 56 | 47 | 1.7 | 3.5 | 0.00 | 0.00 | 0.00 | 73 | 1022.3 |
| 20260503131217 | 52 | 359 | 0.0 | 2.6 | 0.00 | 0.00 | 0.00 | 83 | 1022.1 |
| 20260503131008 | 52 | 56 | 0.0 | 0.9 | 0.00 | 0.00 | 0.00 | 84 | 1022.1 |
| 20260503130509 | 52 | 347 | 0.0 | 0.9 | 0.00 | 0.00 | 0.00 | 86 | 1022.1 |
| 20260503130213 | 51 | 0 | 0.9 | 1.7 | 0.00 | 0.00 | 0.00 | 87 | 1022.1 |
| 20260503120214 | 46 | 329 | 1.7 | 3.5 | 0.00 | 0.00 | 0.00 | 96 | 1021.5 |
| 20260503110508 | 45 | 359 | 2.6 | 2.6 | 0.00 | 0.00 | 0.00 | 95 | 1020.9 |
| 20260503110214 | 45 | 0 | 1.7 | 3.5 | 0.00 | 0.00 | 0.00 | 95 | 1020.9 |
| 20260503100216 | 46 | 340 | 1.7 | 1.7 | 0.00 | 0.00 | 0.00 | 90 | 1020.1 |
| 20260503090510 | 48 | 359 | 4.3 | 4.3 | 0.00 | 0.00 | 0.00 | 86 | 1019.9 |
| 20260503090214 | 48 | 1 | 3.5 | 3.5 | 0.00 | 0.00 | 0.00 | 86 | 1019.9 |
| 20260503081508 | 48 | 347 | 1.7 | 2.6 | 0.00 | 0.00 | 0.00 | 83 | 1019.9 |
| 20260503081214 | 48 | 0 | 1.7 | 3.5 | 0.00 | 0.00 | 0.00 | 82 | 1019.7 |
| 20260503081008 | 49 | 359 | 2.6 | 2.6 | 0.00 | 0.00 | 0.00 | 82 | 1019.7 |
| 20260503080509 | 49 | 0 | 1.7 | 3.5 | 0.00 | 0.00 | 0.00 | 82 | 1019.7 |
| 20260503080214 | 49 | 343 | 0.9 | 1.7 | 0.00 | 0.00 | 0.00 | 82 | 1019.7 |
| 20260503072510 | 50 | 17 | 0.9 | 2.6 | 0.00 | 0.00 | 0.00 | 79 | 1019.4 |
| 20260503072213 | 50 | 4 | 1.7 | 5.2 | 0.00 | 0.00 | 0.00 | 78 | 1019.4 |
| 20260503072007 | 50 | 346 | 2.6 | 2.6 | 0.00 | 0.00 | 0.00 | 78 | 1019.4 |
| 20260503071507 | 50 | 7 | 0.9 | 3.5 | 0.00 | 0.00 | 0.00 | 78 | 1019.4 |
| 20260503071219 | 50 | 353 | 2.6 | 2.6 | 0.00 | 0.00 | 0.00 | 78 | 1019.3 |
| 20260503071008 | 50 | 6 | 1.7 | 3.5 | 0.00 | 0.00 | 0.00 | 78 | 1019.3 |
| 20260503070509 | 50 | 20 | 0.9 | 2.6 | 0.00 | 0.00 | 0.00 | 77 | 1019.3 |
| 20260503070215 | 50 | 0 | 1.7 | 2.6 | 0.00 | 0.00 | 0.00 | 77 | 1019.3 |
| 20260503060215 | 52 | 4 | 2.6 | 6.1 | 0.00 | 0.00 | 0.00 | 72 | 1019.1 |
| 20260503055009 | 53 | 4 | 2.6 | 7.0 | 0.00 | 0.00 | 0.00 | 71 | 1019.1 |
| 20260503054508 | 53 | 17 | 1.7 | 5.2 | 0.00 | 0.00 | 0.00 | 70 | 1019.1 |
| 20260503054215 | 53 | 1 | 5.2 | 6.1 | 0.00 | 0.00 | 0.00 | 71 | 1019.0 |
| 20260503054009 | 53 | 0 | 1.7 | 5.2 | 0.00 | 0.00 | 0.00 | 70 | 1019.0 |
| 20260503053510 | 53 | 51 | 2.6 | 7.8 | 0.00 | 0.00 | 0.00 | 70 | 1019.0 |
| 20260503053215 | 53 | 34 | 2.6 | 7.8 | 0.00 | 0.00 | 0.00 | 70 | 1019.0 |
| 20260503053007 | 53 | 337 | 3.5 | 5.2 | 0.00 | 0.00 | 0.00 | 70 | 1019.0 |
| 20260503052508 | 53 | 3 | 1.7 | 3.5 | 0.00 | 0.00 | 0.00 | 70 | 1018.9 |
| 20260503052214 | 53 | 14 | 0.9 | 6.1 | 0.00 | 0.00 | 0.00 | 69 | 1018.9 |
| 20260503052009 | 53 | 30 | 3.5 | 4.3 | 0.00 | 0.00 | 0.00 | 69 | 1018.9 |
| 20260503051509 | 54 | 0 | 4.3 | 4.3 | 0.00 | 0.00 | 0.00 | 69 | 1018.9 |
| 20260503051215 | 54 | 16 | 5.2 | 6.1 | 0.00 | 0.00 | 0.00 | 69 | 1018.9 |
| 20260503051007 | 54 | 27 | 4.3 | 4.3 | 0.00 | 0.00 | 0.00 | 69 | 1018.9 |
| 20260503050510 | 54 | 34 | 6.1 | 6.1 | 0.00 | 0.00 | 0.00 | 69 | 1018.9 |
| 20260503050215 | 54 | 34 | 6.1 | 8.7 | 0.00 | 0.00 | 0.00 | 69 | 1018.9 |
| 20260503050008 | 54 | 31 | 1.7 | 4.3 | 0.00 | 0.00 | 0.00 | 68 | 1018.9 |
| 20260503045508 | 54 | 41 | 8.7 | 8.7 | 0.00 | 0.00 | 0.00 | 68 | 1018.8 |
| 20260503045214 | 54 | 24 | 3.5 | 7.0 | 0.00 | 0.00 | 0.00 | 68 | 1018.8 |
| 20260503045007 | 54 | 0 | 4.3 | 7.8 | 0.00 | 0.00 | 0.00 | 68 | 1018.8 |
| 20260503044508 | 54 | 20 | 2.6 | 7.8 | 0.00 | 0.00 | 0.00 | 68 | 1018.8 |
| 20260503044214 | 54 | 356 | 4.3 | 5.2 | 0.00 | 0.00 | 0.00 | 68 | 1018.6 |
| 20260503044008 | 54 | 6 | 4.3 | 4.3 | 0.00 | 0.00 | 0.00 | 67 | 1018.6 |
| 20260503043509 | 54 | 51 | 8.7 | 8.7 | 0.00 | 0.00 | 0.00 | 66 | 1018.6 |
| 20260503043214 | 55 | 20 | 0.9 | 3.5 | 0.00 | 0.00 | 0.00 | 66 | 1018.6 |
| 20260503043008 | 55 | 34 | 4.3 | 8.7 | 0.00 | 0.00 | 0.00 | 65 | 1018.6 |
| 20260503042508 | 55 | 1 | 5.2 | 5.2 | 0.00 | 0.00 | 0.00 | 64 | 1018.3 |
| 20260503042215 | 55 | 31 | 2.6 | 5.2 | 0.00 | 0.00 | 0.00 | 63 | 1018.3 |
| 20260503042009 | 56 | 23 | 3.5 | 5.2 | 0.00 | 0.00 | 0.00 | 62 | 1018.3 |
| 20260503041507 | 56 | 0 | 2.6 | 5.2 | 0.00 | 0.00 | 0.00 | 61 | 1018.3 |
| 20260503041216 | 56 | 24 | 7.8 | 8.7 | 0.00 | 0.00 | 0.00 | 60 | 1018.1 |
| 20260503041008 | 56 | 18 | 2.6 | 4.3 | 0.00 | 0.00 | 0.00 | 60 | 1018.1 |
| 20260503040508 | 56 | 357 | 2.6 | 3.5 | 0.00 | 0.00 | 0.00 | 60 | 1018.1 |
| 20260503040213 | 56 | 0 | 0.0 | 1.7 | 0.00 | 0.00 | 0.00 | 59 | 1018.1 |
| 20260503040009 | 56 | 4 | 1.7 | 2.6 | 0.00 | 0.00 | 0.00 | 59 | 1018.1 |
| 20260503035508 | 56 | 1 | 1.7 | 2.6 | 0.00 | 0.00 | 0.00 | 59 | 1018.0 |
| 20260503035215 | 56 | 0 | 0.9 | 1.7 | 0.00 | 0.00 | 0.00 | 59 | 1018.0 |
| 20260503035007 | 56 | 0 | 1.7 | 1.7 | 0.00 | 0.00 | 0.00 | 59 | 1018.0 |
| 20260503034508 | 56 | 6 | 1.7 | 1.7 | 0.00 | 0.00 | 0.00 | 58 | 1018.0 |
| 20260503034213 | 56 | 0 | 0.9 | 2.6 | 0.00 | 0.00 | 0.00 | 58 | 1017.9 |
| 20260503034008 | 56 | 0 | 1.7 | 2.6 | 0.00 | 0.00 | 0.00 | 58 | 1017.9 |
| 20260503033508 | 56 | 7 | 2.6 | 3.5 | 0.00 | 0.00 | 0.00 | 58 | 1017.9 |
| 20260503033214 | 56 | 359 | 0.9 | 2.6 | 0.00 | 0.00 | 0.00 | 59 | 1017.9 |
| 20260503033009 | 56 | 0 | 1.7 | 3.5 | 0.00 | 0.00 | 0.00 | 59 | 1017.9 |
| 20260503032508 | 56 | 0 | 1.7 | 2.6 | 0.00 | 0.00 | 0.00 | 59 | 1017.9 |
| 20260503032213 | 56 | 0 | 1.7 | 1.7 | 0.00 | 0.00 | 0.00 | 59 | 1017.9 |
| 20260503032007 | 56 | 350 | 0.0 | 1.7 | 0.00 | 0.00 | 0.00 | 59 | 1017.9 |
| 20260503031508 | 56 | 356 | 0.9 | 1.7 | 0.00 | 0.00 | 0.00 | 58 | 1017.9 |
| 20260503031215 | 56 | 350 | 0.9 | 1.7 | 0.00 | 0.00 | 0.00 | 58 | 1017.9 |
| 20260503031008 | 56 | 344 | 0.9 | 1.7 | 0.00 | 0.00 | 0.00 | 58 | 1017.9 |
| 20260503030508 | 56 | 0 | 0.0 | 0.9 | 0.00 | 0.00 | 0.00 | 58 | 1017.9 |
| 20260503030214 | 56 | 0 | 0.9 | 0.9 | 0.00 | 0.00 | 0.00 | 58 | 1017.9 |
| 20260503030008 | 56 | 0 | 0.9 | 1.7 | 0.00 | 0.00 | 0.00 | 57 | 1017.9 |
| 20260503025509 | 56 | 0 | 0.9 | 2.6 | 0.00 | 0.00 | 0.00 | 57 | 1017.7 |
| 20260503025214 | 56 | 359 | 2.6 | 2.6 | 0.00 | 0.00 | 0.00 | 57 | 1017.7 |
| 20260503025008 | 56 | 7 | 2.6 | 3.5 | 0.00 | 0.00 | 0.00 | 57 | 1017.7 |
| 20260503024507 | 56 | 359 | 1.7 | 3.5 | 0.00 | 0.00 | 0.00 | 57 | 1017.7 |
| 20260503024215 | 56 | 8 | 0.9 | 3.5 | 0.00 | 0.00 | 0.00 | 57 | 1017.6 |
| 20260503024008 | 56 | 0 | 1.7 | 2.6 | 0.00 | 0.00 | 0.00 | 57 | 1017.6 |
| 20260503023508 | 57 | 1 | 1.7 | 2.6 | 0.00 | 0.00 | 0.00 | 58 | 1017.6 |
| 20260503023214 | 57 | 359 | 1.7 | 1.7 | 0.00 | 0.00 | 0.00 | 57 | 1017.6 |
| 20260503023009 | 57 | 359 | 0.0 | 0.9 | 0.00 | 0.00 | 0.00 | 57 | 1017.6 |
| 20260503022507 | 57 | 359 | 0.0 | 0.9 | 0.00 | 0.00 | 0.00 | 56 | 1017.4 |
| 20260503022215 | 57 | 0 | 0.9 | 1.7 | 0.00 | 0.00 | 0.00 | 56 | 1017.4 |
| 20260503022008 | 57 | 0 | 0.0 | 1.7 | 0.00 | 0.00 | 0.00 | 56 | 1017.4 |
| 20260503021508 | 57 | 0 | 1.7 | 3.5 | 0.00 | 0.00 | 0.00 | 55 | 1017.4 |
| 20260503021214 | 57 | 0 | 3.5 | 3.5 | 0.00 | 0.00 | 0.00 | 56 | 1017.2 |
| 20260503021009 | 57 | 3 | 1.7 | 2.6 | 0.00 | 0.00 | 0.00 | 56 | 1017.2 |
| 20260503020507 | 57 | 4 | 0.0 | 2.6 | 0.00 | 0.00 | 0.00 | 54 | 1017.2 |
| 20260503020214 | 57 | 342 | 0.9 | 4.3 | 0.00 | 0.00 | 0.00 | 54 | 1017.2 |
| 20260503020008 | 57 | 343 | 0.0 | 3.5 | 0.00 | 0.00 | 0.00 | 55 | 1017.2 |
| 20260503015508 | 57 | 336 | 2.6 | 2.6 | 0.00 | 0.00 | 0.00 | 55 | 1017.0 |